[[{"header":{"parameterUnit":"m.s-1","parameterCategory":2,"la1":30.2991,"la2":30.254,"lo1":-89.0895,"lo2":-89.0444,"dy":0.0017,"dx":0.0017,"nx":28,"ny":28,"refTime":"2024-07-13T03:00:00:Z","depth":"0","parameterNumber":2,"parameterNumberName":"U-component_of_CURRENTS"},"data":[0,0,0,0,0,0,0,0,0,0,0,0,0,0,0,0,0,0,0,0,0,0,0,0,0,0,0,0,0,0,0,0,0,0,0,0,0,0,0,0,0,0,0,0,0,0,0,0,0,0,0,0,0,0,0,0,0,0,0.2256,0.2257,0,0.2306,0.2307,0.2307,0.2318,0.2318,0.2317,0.2317,0.2401,0.2403,0.2406,0,0,0,0,0,0,0,0,0,0,0,0,0,0.2219,0.2219,0.2256,0.2257,0.2257,0.2306,0.2307,0.2307,0.2318,0.2318,0.2317,0.2317,0.24,0.2403,0.2406,0,0,0,0,0,0,0,0,0,0,0,0,0,0.2249,0.2219,0.2256,0.2268,0.227,0.2306,0.2307,0.2308,0.2318,0.2317,0.2317,0.2316,0.2399,0.2403,0.2406,0.2442,0,0,0.2418,0.242,0,0,0,0,0,0,0,0,0.2247,0.225,0.2266,0.2267,0.2269,0.2305,0.2324,0.2354,0.2318,0.23,0.2317,0.2316,0.2372,0.2378,0.2389,0.2446,0.245,0.2419,0.2421,0.2423,0.2424,0,0,0,0,0,0,0,0.2245,0.2248,0.2276,0.2267,0.2269,0.2288,0.2291,0.233,0.234,0.2302,0.2302,0.2308,0.2373,0.2385,0.2391,0.2451,0.2419,0.2422,0.2425,0.2426,0.2601,0.2603,0,0,0,0,0,0,0.2236,0.2246,0.2275,0.2278,0.2256,0.2289,0.2293,0.2294,0.2338,0.2344,0.2308,0.2308,0.2379,0.2386,0.2394,0.2485,0.2423,0.2426,0.2429,0.2599,0.2602,0.2604,0,0,0,0,0,0,0.2235,0.2238,0.2273,0.2263,0.2269,0.229,0.2292,0.2296,0.2308,0.2343,0.2349,0.2317,0.2378,0.2388,0.2451,0.2486,0.2428,0.2432,0.2596,0.26,0.2603,0.2637,0,0,0,0,0,0,0.2234,0.2237,0.2242,0.2262,0.2269,0.2301,0.2293,0.2297,0.2312,0.2313,0.2353,0.236,0.2379,0.2446,0.2455,0.249,0.2435,0.2593,0.2598,0.2602,0.2633,0.2641,0.2648,0,0,0,0,0,0.2232,0.2242,0.2242,0.2246,0.2272,0.2302,0.2307,0.2321,0.2313,0.2328,0.2365,0.2359,0.248,0.2451,0.2461,0.2498,0.2591,0.2596,0.2601,0.2629,0.2639,0.2648,0,0,0,0,0,0,0.2238,0.2245,0.2245,0.2258,0.228,0.2303,0.2318,0.2323,0.2361,0.2364,0.2389,0.2401,0.2473,0.2484,0.2451,0.2564,0.2534,0.2542,0.2552,0.2562,0.2569,0.2573,0.2438,0,0,0,0,0,0.2238,0.2244,0.2259,0.2274,0.228,0.2298,0.2312,0.2321,0.2354,0.2368,0.2399,0.2443,0.2504,0.2528,0.2578,0.2635,0.2673,0.2667,0.2675,0.2681,0.2694,0.2789,0.2807,0.2621,0.2621,0.2621,0,0,0.2246,0.2251,0.2256,0.2275,0.2289,0.2315,0.2305,0.2329,0.2361,0.2374,0.2431,0.2474,0.2528,0.2601,0.2633,0.2611,0.2756,0.2687,0.2692,0.2702,0.2797,0.2815,0.2831,0.2625,0.2624,0.2623,0,0,0.2269,0.2267,0.228,0.2294,0.2315,0.2331,0.2336,0.2363,0.2383,0.2441,0.2473,0.2541,0.2605,0.2666,0.2702,0.2783,0.2799,0.2789,0.2825,0.2917,0.2933,0.2947,0.3022,0.3043,0.2785,0.2785,0.2785,0,0.2283,0.2294,0.2293,0.2312,0.2327,0.2337,0.2362,0.2393,0.2442,0.2474,0.2463,0.2605,0.2644,0.2759,0.2789,0.2802,0.2846,0.278,0.2927,0.2942,0.2956,0.3028,0.3051,0.2788,0.2787,0.2787,0.2787,0,0.2314,0.2324,0.2335,0.2358,0.2379,0.2401,0.2433,0.2467,0.2486,0.2522,0.2624,0.2689,0.2773,0.2799,0.2819,0.2944,0.2942,0.2929,0.2898,0.2976,0.3048,0.3071,0.2791,0.279,0.2789,0.2789,0,0,0.2342,0.2353,0.2357,0.2363,0.2399,0.2416,0.2476,0.2535,0.2575,0.2637,0.2708,0.2825,0.2853,0.2898,0.2939,0.3015,0.3154,0.3011,0.3015,0.3075,0.3354,0.3315,0.3336,0.3163,0.3167,0.317,0.3364,0,0.2369,0.2391,0.2402,0.2436,0.2447,0.2475,0.2526,0.2583,0.2632,0.2704,0.2792,0.2873,0.2893,0.2933,0.3024,0.3127,0.3216,0.3103,0.3277,0.3283,0.3231,0.3362,0.3263,0.3425,0.3386,0.339,0.3393,0,0.2396,0.2403,0.2427,0.2452,0.2461,0.2489,0.2555,0.2604,0.2711,0.275,0.2852,0.2914,0.3066,0.3045,0.3281,0.3206,0.3292,0.3357,0.3366,0.3335,0.3287,0.3342,0.3467,0.3282,0.3428,0.3425,0.3422,0,0.2391,0.2422,0.2432,0.2441,0.2479,0.2501,0.2531,0.2617,0.266,0.278,0.2829,0.2999,0.3083,0.3235,0.3378,0.3344,0.3611,0.3578,0.3629,0.3626,0.3581,0.3566,0.354,0.3747,0.3747,0.3746,0.3746,0,0.2403,0.2412,0.2422,0.2424,0.2445,0.248,0.2525,0.2576,0.2665,0.2723,0.2847,0.2932,0.3133,0.3296,0.342,0.3607,0.3658,0.3677,0.3693,0.3589,0.3574,0.3438,0.335,0.3754,0.3752,0.3751,0.3749,0,0.2385,0.2398,0.2401,0.2425,0.2434,0.2441,0.2489,0.2525,0.2613,0.2696,0.2737,0.292,0.3132,0.3326,0.3575,0.3652,0.3719,0.3869,0.3723,0.3718,0.357,0.349,0.3429,0.3366,0.3979,0.398,0.398,0,0.237,0.2368,0.2376,0.2371,0.2375,0.2394,0.2411,0.2486,0.2522,0.2683,0.2721,0.294,0.3094,0.3449,0.3646,0.3889,0.3726,0.3885,0.3806,0.3581,0.3504,0.333,0.3269,0.3768,0.3767,0.3766,0.3765,0,0.2333,0.2333,0.2329,0.2316,0.2318,0.2331,0.2357,0.2375,0.2473,0.256,0.2688,0.2827,0.3171,0.3369,0.3662,0.3804,0.3657,0.3867,0.369,0.3397,0.3155,0.3093,0.36,0.3755,0.3756,0.3757,0.3757,0.3758,0.2294,0.2275,0.2265,0.2252,0.225,0.2247,0.2241,0.229,0.2344,0.2439,0.2596,0.2767,0.3053,0.3472,0.3596,0.3641,0.3618,0.3542,0.3488,0.3349,0.3199,0.3671,0.3794,0.3795,0.3796,0.3797,0.3798,0,0.2239,0.2223,0.2202,0.2177,0.2147,0.2178,0.2189,0.2183,0.2217,0.2332,0.2447,0.2699,0.2901,0.3135,0.3306,0.3243,0.3177,0.3129,0.285,0.2836,0.3321,0.3216,0.3149,0.3149,0.315,0.315,0.315,0.315,0.2209,0.2171,0.2159,0.2084,0.2065,0.2025,0.202,0.2027,0.2082,0.2156,0.2258,0.2395,0.2617,0.2724,0.2733,0.2748,0.2551,0.2452,0.2428,0.2718,0.275,0.278,0.2658,0.2474,0.2474,0.1861,0.1856,0.1852]},{"header":{"parameterUnit":"m.s-1","parameterCategory":2,"la1":30.2991,"la2":30.254,"lo1":-89.0895,"lo2":-89.0444,"dy":0.0017,"dx":0.0017,"nx":28,"ny":28,"refTime":"2024-07-13T03:00:00:Z","depth":"0","parameterNumber":3,"parameterNumberName":"V-component_of_CURRENTS"},"data":[0,0,0,0,0,0,0,0,0,0,0,0,0,0,0,0,0,0,0,0,0,0,0,0,0,0,0,0,0,0,0,0,0,0,0,0,0,0,0,0,0,0,0,0,0,0,0,0,0,0,0,0,0,0,0,0,0,0,0.0757,0.0757,0,0.0751,0.075,0.075,0.0744,0.0744,0.0744,0.0744,0.0669,0.0667,0.0665,0,0,0,0,0,0,0,0,0,0,0,0,0,0.0715,0.0716,0.0757,0.0757,0.0757,0.0751,0.075,0.075,0.0744,0.0744,0.0744,0.0744,0.0669,0.0667,0.0664,0,0,0,0,0,0,0,0,0,0,0,0,0,0.0722,0.0716,0.0757,0.0754,0.0754,0.0751,0.075,0.075,0.0744,0.0744,0.0744,0.0744,0.067,0.0667,0.0664,0.0643,0,0,0.0654,0.0653,0,0,0,0,0,0,0,0,0.0721,0.0723,0.0754,0.0754,0.0754,0.075,0.0708,0.0711,0.0744,0.0746,0.0744,0.0745,0.069,0.0685,0.0683,0.0639,0.0636,0.0654,0.0652,0.0651,0.065,0,0,0,0,0,0,0,0.0721,0.0723,0.0753,0.0755,0.0754,0.0737,0.0738,0.0709,0.0715,0.0746,0.0746,0.0748,0.0689,0.0686,0.0681,0.0635,0.0654,0.0651,0.065,0.0648,0.0576,0.0576,0,0,0,0,0,0,0.0728,0.0723,0.0753,0.0753,0.074,0.0738,0.0739,0.075,0.0717,0.0713,0.0748,0.0748,0.0691,0.0684,0.0678,0.0683,0.0651,0.0648,0.0646,0.0576,0.0576,0.0576,0,0,0,0,0,0,0.0727,0.0731,0.0753,0.0738,0.074,0.0739,0.075,0.075,0.0748,0.0719,0.0714,0.0748,0.0691,0.0682,0.0663,0.0678,0.0647,0.0644,0.0576,0.0576,0.0576,0.0671,0,0,0,0,0,0,0.0726,0.0731,0.0735,0.0739,0.0741,0.0758,0.075,0.0749,0.075,0.075,0.0717,0.0711,0.069,0.0668,0.066,0.0674,0.0641,0.0576,0.0576,0.0576,0.0668,0.0675,0.068,0,0,0,0,0,0.0725,0.0728,0.0735,0.0738,0.0749,0.0759,0.0758,0.0756,0.075,0.0754,0.0736,0.0712,0.0661,0.0666,0.0656,0.0669,0.0576,0.0576,0.0576,0.0666,0.0673,0.068,0,0,0,0,0,0,0.07,0.0728,0.0736,0.0745,0.0757,0.0759,0.0758,0.0758,0.0747,0.0743,0.0714,0.0706,0.0696,0.0661,0.0667,0.0645,0.0613,0.0611,0.0684,0.0691,0.0697,0.0717,0.0639,0,0,0,0,0,0.0702,0.0719,0.0738,0.0745,0.0752,0.0756,0.0757,0.0761,0.0754,0.075,0.0733,0.0705,0.0686,0.0673,0.0649,0.0635,0.061,0.0633,0.0639,0.0645,0.0652,0.0629,0.0634,0.0576,0.0576,0.0576,0,0,0.0692,0.0711,0.0718,0.0742,0.0748,0.0768,0.0756,0.0765,0.0781,0.0741,0.0748,0.0725,0.0686,0.0681,0.0672,0.0656,0.0648,0.0644,0.065,0.0654,0.0629,0.0635,0.0641,0.0576,0.0576,0.0576,0,0,0.069,0.0702,0.0722,0.0738,0.076,0.0769,0.0775,0.0787,0.0791,0.0795,0.0774,0.0767,0.0729,0.0721,0.0706,0.0722,0.0681,0.0703,0.0751,0.0729,0.0734,0.0738,0.0723,0.0725,0.0705,0.0706,0.0706,0,0.0676,0.071,0.0724,0.075,0.0768,0.0774,0.08,0.0806,0.0811,0.0821,0.0806,0.0782,0.0752,0.0756,0.0766,0.074,0.0716,0.0735,0.0739,0.0743,0.0746,0.0729,0.073,0.071,0.071,0.0709,0.0709,0,0.0697,0.0724,0.0734,0.0781,0.0798,0.0819,0.0841,0.0857,0.0862,0.0872,0.088,0.085,0.0839,0.0827,0.0803,0.081,0.0785,0.0754,0.0731,0.0758,0.0738,0.0738,0.0717,0.0715,0.0714,0.0713,0,0,0.0673,0.0739,0.0744,0.0778,0.082,0.084,0.0872,0.091,0.0937,0.0937,0.0968,0.0945,0.0936,0.0918,0.0889,0.0872,0.0878,0.0826,0.0823,0.0828,0.0832,0.081,0.0807,0.0846,0.0846,0.0847,0.0815,0,0.0688,0.0748,0.0777,0.0832,0.0867,0.0894,0.0928,0.096,0.0979,0.1009,0.0995,0.1004,0.0967,0.0967,0.0949,0.09,0.0879,0.0889,0.079,0.0787,0.0778,0.0806,0.0819,0.0791,0.0814,0.0814,0.0814,0,0.0706,0.0749,0.0806,0.088,0.0897,0.0927,0.0993,0.1024,0.1065,0.1078,0.1094,0.1083,0.1083,0.1032,0.0977,0.0984,0.0915,0.0868,0.0865,0.0811,0.0764,0.0763,0.0789,0.0673,0.0813,0.0813,0.0813,0,0.0699,0.0771,0.0822,0.0846,0.0923,0.0953,0.0993,0.1044,0.1081,0.1124,0.1155,0.1148,0.1148,0.1079,0.1003,0.0984,0.0929,0.0887,0.08,0.0798,0.0773,0.0768,0.0689,0.0827,0.0827,0.0827,0.0827,0,0.0714,0.0755,0.0823,0.0852,0.0914,0.0962,0.1025,0.1065,0.1123,0.1177,0.1188,0.1225,0.1155,0.1124,0.1033,0.0935,0.0952,0.082,0.0791,0.0806,0.0804,0.067,0.0607,0.0826,0.0826,0.0827,0.0827,0,0.0704,0.0749,0.0809,0.0888,0.0914,0.0956,0.1044,0.1092,0.1147,0.1219,0.1238,0.128,0.1259,0.1183,0.1078,0.0976,0.0823,0.0827,0.0858,0.0833,0.0636,0.0578,0.0487,0.0463,0.0731,0.073,0.073,0,0.0709,0.0738,0.0822,0.0859,0.0896,0.0964,0.1016,0.109,0.1148,0.1256,0.1294,0.1314,0.1351,0.1219,0.1061,0.0917,0.0809,0.0789,0.0747,0.0637,0.0551,0.0526,0.0511,0.0755,0.0754,0.0754,0.0754,0,0.0716,0.0739,0.0791,0.0858,0.0915,0.0989,0.107,0.1119,0.1218,0.1295,0.1394,0.144,0.1356,0.1246,0.1052,0.0939,0.073,0.0775,0.0653,0.0561,0.0538,0.0497,0.0765,0.0751,0.0752,0.0752,0.0752,0.0752,0.0715,0.0744,0.0803,0.0866,0.0934,0.1016,0.1075,0.1169,0.1273,0.1415,0.146,0.1561,0.1409,0.1176,0.0997,0.0681,0.0693,0.0563,0.0503,0.0489,0.0461,0.0728,0.0682,0.0682,0.0682,0.0682,0.0682,0,0.0713,0.0752,0.0811,0.0892,0.0957,0.0998,0.1115,0.1188,0.1309,0.1461,0.1572,0.159,0.1364,0.1116,0.0696,0.0444,0.0398,0.0319,0.0282,0.0281,0.0507,0.0502,0.0426,0.0426,0.0426,0.0426,0.0426,0.0426,0.0719,0.0763,0.0795,0.0893,0.0952,0.1043,0.1109,0.1232,0.1355,0.1541,0.1639,0.1716,0.1525,0.0795,0.0296,0.0194,0.0057,0.0022,-0.0045,0.0085,0.0103,0.0121,0.0101,-0.0058,-0.0059,-0.0215,-0.0217,-0.0219]}],[{"header":{"parameterUnit":"m.s-1","parameterCategory":2,"la1":30.2991,"la2":30.254,"lo1":-89.0895,"lo2":-89.0444,"dy":0.0017,"dx":0.0017,"nx":28,"ny":28,"refTime":"2024-07-13T03:00:00:Z","depth":"2","parameterNumber":2,"parameterNumberName":"U-component_of_CURRENTS"},"data":[0,0,0,0,0,0,0,0,0,0,0,0,0,0,0,0,0,0,0,0,0,0,0,0,0,0,0,0,0,0,0,0,0,0,0,0,0,0,0,0,0,0,0,0,0,0,0,0,0,0,0,0,0,0,0,0,0,0,0.0968,0.0968,0,0.1018,0.1019,0.102,0.1061,0.1061,0.1062,0.1062,0.1109,0.1109,0.111,0,0,0,0,0,0,0,0,0,0,0,0,0,0.0949,0.0949,0.0968,0.0968,0.0969,0.1018,0.1019,0.102,0.1061,0.1061,0.1062,0.1062,0.1108,0.1109,0.111,0,0,0,0,0,0,0,0,0,0,0,0,0,0.0975,0.0949,0.0968,0.0995,0.0998,0.1018,0.1019,0.102,0.1061,0.1061,0.1062,0.1063,0.1108,0.1109,0.1111,0.1108,0,0,0.1115,0.1115,0,0,0,0,0,0,0,0,0.0973,0.0975,0.099,0.0993,0.0996,0.1033,0.103,0.1049,0.1061,0.1038,0.1062,0.1063,0.1082,0.1086,0.1095,0.111,0.1112,0.1115,0.1116,0.1116,0.1117,0,0,0,0,0,0,0,0.0971,0.0974,0.0989,0.0991,0.0995,0.1019,0.1023,0.1034,0.1057,0.104,0.1043,0.1047,0.1084,0.1094,0.1096,0.1113,0.1115,0.1116,0.1117,0.1117,0.119,0.1191,0,0,0,0,0,0,0.0961,0.0972,0.0987,0.099,0.0985,0.1019,0.1023,0.1022,0.1057,0.1063,0.1046,0.1049,0.1091,0.1095,0.1098,0.1164,0.1116,0.1117,0.1118,0.1189,0.119,0.1191,0,0,0,0,0,0,0.096,0.0961,0.0985,0.0982,0.0987,0.1018,0.1016,0.1022,0.1046,0.1062,0.1068,0.1066,0.1092,0.1096,0.1133,0.1164,0.1118,0.1119,0.1187,0.1189,0.1191,0.1253,0,0,0,0,0,0,0.0959,0.0961,0.0965,0.0981,0.0986,0.1006,0.1016,0.1023,0.1047,0.1051,0.108,0.1084,0.1092,0.1132,0.1135,0.1165,0.112,0.1186,0.1188,0.119,0.1249,0.1256,0.1262,0,0,0,0,0,0.0958,0.0959,0.0965,0.0967,0.0988,0.1007,0.1012,0.1037,0.1047,0.106,0.109,0.1084,0.1147,0.1134,0.1137,0.1168,0.1185,0.1188,0.119,0.1246,0.1255,0.1262,0,0,0,0,0,0,0.0959,0.0964,0.097,0.0975,0.0993,0.1014,0.103,0.1043,0.1076,0.1086,0.11,0.1107,0.1151,0.1147,0.1132,0.1194,0.1164,0.1167,0.1206,0.1214,0.122,0.1222,0.1121,0,0,0,0,0,0.0957,0.096,0.0972,0.0979,0.0988,0.101,0.1024,0.1041,0.1066,0.1082,0.1106,0.1132,0.116,0.1178,0.1197,0.1229,0.1235,0.125,0.1256,0.1262,0.1266,0.1297,0.1307,0.12,0.12,0.12,0,0,0.096,0.0964,0.0967,0.098,0.0997,0.1017,0.1021,0.1046,0.1074,0.1081,0.1134,0.1155,0.1173,0.1219,0.1237,0.1222,0.13,0.1265,0.127,0.1271,0.13,0.1311,0.132,0.1201,0.1201,0.1201,0,0,0.0967,0.0971,0.0977,0.0991,0.1015,0.1031,0.1039,0.1069,0.1097,0.1143,0.116,0.1198,0.124,0.1264,0.1279,0.1328,0.1332,0.1338,0.1377,0.1408,0.1417,0.1425,0.1464,0.1475,0.1343,0.1343,0.1343,0,0.0975,0.098,0.0985,0.0998,0.1018,0.1038,0.1061,0.1088,0.1132,0.1162,0.1167,0.1248,0.126,0.1319,0.1345,0.1343,0.1368,0.1348,0.1417,0.1425,0.1432,0.147,0.1481,0.1346,0.1346,0.1345,0.1345,0,0.0984,0.0997,0.1004,0.1028,0.105,0.1073,0.1106,0.1141,0.1177,0.1209,0.1279,0.1306,0.1356,0.1368,0.1377,0.144,0.1445,0.1422,0.1398,0.1447,0.1484,0.1494,0.1351,0.135,0.1349,0.1348,0,0,0.0987,0.1006,0.1013,0.1027,0.1069,0.1085,0.114,0.1193,0.1236,0.1286,0.1351,0.1404,0.1428,0.1446,0.1463,0.1491,0.1569,0.149,0.149,0.1531,0.1659,0.1584,0.1588,0.1568,0.157,0.1571,0.1672,0,0.1001,0.102,0.1037,0.1075,0.109,0.1131,0.118,0.1232,0.1286,0.1353,0.1396,0.1462,0.1456,0.1497,0.1527,0.1561,0.1598,0.1545,0.1603,0.1605,0.1534,0.1598,0.1353,0.1415,0.1682,0.1683,0.1685,0,0.1011,0.1021,0.1053,0.1096,0.111,0.1146,0.1228,0.1274,0.1365,0.1415,0.1486,0.1524,0.1599,0.1574,0.1661,0.1636,0.1659,0.1671,0.1675,0.1586,0.1549,0.1405,0.1424,0.1702,0.1701,0.17,0.1698,0,0.1002,0.1038,0.1062,0.1076,0.1129,0.1169,0.1214,0.13,0.135,0.1465,0.152,0.1603,0.1662,0.17,0.1746,0.1718,0.183,0.1785,0.1736,0.1732,0.1523,0.1496,0.1837,0.1837,0.1837,0.1836,0.1836,0,0.1004,0.1026,0.1061,0.1073,0.1118,0.1169,0.1239,0.1301,0.1399,0.1463,0.1555,0.1622,0.1699,0.1769,0.1786,0.181,0.1868,0.1759,0.1755,0.1539,0.1514,0.175,0.1738,0.184,0.1839,0.1838,0.1838,0,0.0988,0.1011,0.1035,0.1089,0.1111,0.1147,0.1236,0.1282,0.1393,0.1483,0.1528,0.1664,0.1767,0.183,0.1908,0.1858,0.1884,0.1874,0.1626,0.1588,0.1755,0.1746,0.1821,0.182,0.1818,0.1817,0.1816,0,0.0976,0.0984,0.103,0.1043,0.1071,0.1129,0.1168,0.1272,0.1322,0.1496,0.1532,0.1683,0.1747,0.1848,0.1772,0.178,0.1905,0.16,0.1477,0.1767,0.1755,0.1748,0.1741,0.124,0.1235,0.123,0.1226,0,0.0941,0.0964,0.0977,0.1002,0.1038,0.1077,0.1143,0.1179,0.1308,0.1394,0.1518,0.1589,0.1642,0.1552,0.1567,0.1521,0.1572,0.1504,0.1884,0.1275,0.1225,0.1211,0.1222,0.1185,0.1189,0.1192,0.1194,0.1196,0.0911,0.0909,0.0924,0.0949,0.0982,0.1017,0.1044,0.1116,0.119,0.1303,0.1401,0.1445,0.1323,0.1219,0.1216,0.1227,0.1283,0.1225,0.1237,0.1255,0.1162,0.1111,0.1034,0.1037,0.104,0.1042,0.1045,0,0.0851,0.086,0.0868,0.089,0.0898,0.0956,0.1013,0.103,0.1093,0.1177,0.1253,0.1002,0.0925,0.097,0.0858,0.0806,0.0765,0.0853,0.0792,0.0826,0.0859,0.0748,0.051,0.0511,0.0511,0.0512,0,0,0.0818,0.0796,0.0799,0.0791,0.0826,0.0851,0.0882,0.092,0.0959,0.0948,0.0941,0.0886,0.0849,0.0648,0.057,0.0607,0.0743,0.057,0.096,0.0919,0.0955,0.099,0.0846,0,0,0,0,0]},{"header":{"parameterUnit":"m.s-1","parameterCategory":2,"la1":30.2991,"la2":30.254,"lo1":-89.0895,"lo2":-89.0444,"dy":0.0017,"dx":0.0017,"nx":28,"ny":28,"refTime":"2024-07-13T03:00:00:Z","depth":"2","parameterNumber":3,"parameterNumberName":"V-component_of_CURRENTS"},"data":[0,0,0,0,0,0,0,0,0,0,0,0,0,0,0,0,0,0,0,0,0,0,0,0,0,0,0,0,0,0,0,0,0,0,0,0,0,0,0,0,0,0,0,0,0,0,0,0,0,0,0,0,0,0,0,0,0,0,-0.0182,-0.0183,0,-0.0259,-0.026,-0.0261,-0.03,-0.03,-0.03,-0.03,-0.041,-0.0413,-0.0416,0,0,0,0,0,0,0,0,0,0,0,0,0,-0.0103,-0.0104,-0.0182,-0.0183,-0.0184,-0.0259,-0.026,-0.0261,-0.03,-0.03,-0.03,-0.03,-0.0409,-0.0413,-0.0416,0,0,0,0,0,0,0,0,0,0,0,0,0,-0.0154,-0.0104,-0.0182,-0.0212,-0.0216,-0.0259,-0.026,-0.0261,-0.03,-0.03,-0.03,-0.03,-0.0408,-0.0412,-0.0417,-0.0445,0,0,-0.043,-0.0432,0,0,0,0,0,0,0,0,-0.0151,-0.0157,-0.0207,-0.021,-0.0214,-0.0269,-0.0272,-0.0324,-0.03,-0.0268,-0.03,-0.03,-0.0366,-0.0374,-0.0388,-0.045,-0.0454,-0.0431,-0.0433,-0.0435,-0.0436,0,0,0,0,0,0,0,-0.0148,-0.0154,-0.0213,-0.0208,-0.0212,-0.0233,-0.024,-0.0283,-0.0317,-0.0271,-0.0274,-0.0282,-0.0368,-0.0384,-0.0391,-0.0456,-0.0431,-0.0434,-0.0437,-0.0439,-0.0564,-0.0564,0,0,0,0,0,0,-0.0136,-0.0151,-0.0211,-0.0215,-0.0182,-0.0234,-0.0242,-0.0252,-0.0316,-0.0326,-0.0282,-0.0283,-0.0376,-0.0386,-0.0395,-0.0432,-0.0435,-0.0439,-0.0442,-0.0563,-0.0564,-0.0565,0,0,0,0,0,0,-0.0134,-0.014,-0.0208,-0.0184,-0.0194,-0.0236,-0.0246,-0.0254,-0.0264,-0.0324,-0.0334,-0.0284,-0.0377,-0.0389,-0.0433,-0.0436,-0.0441,-0.0445,-0.0562,-0.0563,-0.0564,-0.0505,0,0,0,0,0,0,-0.0131,-0.0139,-0.0139,-0.0184,-0.0195,-0.0225,-0.0247,-0.0255,-0.0269,-0.0272,-0.0329,-0.034,-0.0378,-0.0426,-0.0438,-0.0442,-0.0449,-0.0562,-0.0563,-0.0564,-0.0506,-0.0503,-0.0502,0,0,0,0,0,-0.0128,-0.0128,-0.0138,-0.0146,-0.0194,-0.0225,-0.0233,-0.0262,-0.0269,-0.0271,-0.0315,-0.0337,-0.0442,-0.043,-0.0444,-0.045,-0.0561,-0.0562,-0.0564,-0.0507,-0.0504,-0.0502,0,0,0,0,0,0,-0.0099,-0.0134,-0.0145,-0.0158,-0.0184,-0.0231,-0.0236,-0.0255,-0.0291,-0.0292,-0.0346,-0.036,-0.0399,-0.0436,-0.0421,-0.0491,-0.0506,-0.051,-0.0458,-0.0456,-0.0454,-0.0415,-0.0453,0,0,0,0,0,-0.0091,-0.0097,-0.0135,-0.0145,-0.0154,-0.0192,-0.0206,-0.0225,-0.0263,-0.0278,-0.0318,-0.0367,-0.0417,-0.0443,-0.0488,-0.0526,-0.0547,-0.054,-0.0538,-0.0536,-0.0515,-0.0571,-0.0571,-0.0569,-0.0569,-0.0569,0,0,-0.0084,-0.0102,-0.0108,-0.0138,-0.016,-0.0167,-0.02,-0.0216,-0.0224,-0.0286,-0.0307,-0.0358,-0.0425,-0.0467,-0.0489,-0.0497,-0.0545,-0.0538,-0.0535,-0.0515,-0.0573,-0.0573,-0.0572,-0.057,-0.057,-0.057,0,0,-0.0068,-0.0087,-0.0082,-0.0096,-0.0121,-0.0146,-0.0145,-0.0183,-0.0201,-0.0231,-0.0282,-0.0332,-0.0397,-0.0451,-0.0487,-0.0501,-0.053,-0.0519,-0.0478,-0.0534,-0.0533,-0.0534,-0.0541,-0.0543,-0.052,-0.052,-0.052,0,-0.0059,-0.0056,-0.0086,-0.0081,-0.0085,-0.0129,-0.0121,-0.015,-0.0198,-0.0212,-0.0227,-0.033,-0.0389,-0.045,-0.0457,-0.0494,-0.0511,-0.048,-0.0528,-0.0529,-0.053,-0.0538,-0.0541,-0.0517,-0.0518,-0.0518,-0.0518,0,-0.0036,-0.0031,-0.0028,-0.0034,-0.0043,-0.0046,-0.0081,-0.0096,-0.0121,-0.0152,-0.0203,-0.0285,-0.0342,-0.038,-0.0422,-0.0467,-0.0469,-0.0515,-0.0526,-0.0526,-0.0535,-0.0538,-0.0513,-0.0514,-0.0515,-0.0516,0,0,-0.0033,-0.0014,-0.0014,0.0004,-0.0015,-0.0019,-0.0031,-0.0056,-0.0059,-0.0114,-0.0125,-0.0226,-0.0261,-0.0304,-0.0374,-0.0424,-0.0453,-0.0462,-0.0466,-0.0452,-0.0534,-0.0445,-0.044,-0.0507,-0.0507,-0.0508,-0.0528,0,-0.0007,0.0027,0.0025,0.0054,0.0069,0.0041,0.0037,0.0009,-0.0023,-0.0046,-0.0134,-0.0173,-0.0238,-0.0264,-0.0326,-0.0424,-0.0462,-0.044,-0.055,-0.0552,-0.046,-0.0442,-0.0451,-0.0462,-0.0532,-0.0532,-0.0533,0,0.0013,0.0038,0.0078,0.0111,0.0115,0.0123,0.012,0.0113,0.0063,0.0041,-0.0012,-0.0074,-0.0154,-0.0211,-0.0351,-0.0331,-0.0414,-0.0488,-0.0492,-0.0427,-0.0469,-0.048,-0.0466,-0.0539,-0.0538,-0.0538,-0.0538,0,0.0034,0.0075,0.0114,0.0123,0.0145,0.0158,0.0167,0.0138,0.0141,0.0101,0.0101,-0.0003,-0.0043,-0.0171,-0.0305,-0.0334,-0.0442,-0.0513,-0.0505,-0.0499,-0.0534,-0.0529,-0.0601,-0.0601,-0.06,-0.06,-0.06,0,0.0059,0.0089,0.0131,0.0151,0.0196,0.0203,0.0235,0.0225,0.0219,0.0234,0.0154,0.0148,-0.0036,-0.0121,-0.0263,-0.0361,-0.0411,-0.047,-0.0496,-0.051,-0.0502,-0.0601,-0.0601,-0.0601,-0.0601,-0.0601,-0.0601,0,0.0069,0.0096,0.0143,0.0188,0.0206,0.0238,0.0288,0.0309,0.0308,0.0327,0.0324,0.0259,0.0171,0.0007,-0.0183,-0.0277,-0.0407,-0.0434,-0.0398,-0.0418,-0.0438,-0.0435,-0.0429,-0.0426,-0.0423,-0.0421,-0.0419,0,0.008,0.0106,0.0168,0.0202,0.0226,0.0279,0.0314,0.0341,0.0371,0.0399,0.0413,0.0363,0.033,0.0137,-0.0042,-0.0221,-0.0314,-0.0335,-0.0395,-0.0392,-0.042,-0.0421,-0.0421,-0.0428,-0.0427,-0.0425,-0.0424,0,0.0098,0.0115,0.0153,0.0223,0.0275,0.0339,0.0399,0.0439,0.0479,0.0518,0.0564,0.0554,0.0414,0.0235,0.0037,-0.0088,-0.0305,-0.0308,-0.0351,-0.0441,-0.0386,-0.0415,-0.0417,-0.0413,-0.0414,-0.0415,-0.0416,-0.0416,0.0101,0.0133,0.0186,0.0251,0.0314,0.0398,0.046,0.0532,0.0614,0.0693,0.0672,0.0635,0.0361,0.0116,-0.0022,-0.0132,-0.0155,-0.0289,-0.0297,-0.0306,-0.0273,-0.0213,-0.02,-0.02,-0.02,-0.02,-0.02,0,0.0111,0.0155,0.0217,0.0304,0.0378,0.0408,0.0517,0.0591,0.0706,0.0742,0.0791,0.0472,0.0317,0.0088,-0.0049,-0.0158,-0.02,-0.0211,-0.03,-0.031,-0.0319,-0.0291,-0.0221,-0.0222,-0.0222,-0.0222,0,0,0.0122,0.0176,0.0219,0.0344,0.0409,0.0519,0.0587,0.0702,0.0743,0.0753,0.0689,0.059,0.0265,0.0079,-0.0079,-0.0114,-0.0166,-0.011,-0.0085,-0.0178,-0.0185,-0.0359,-0.0324,0,0,0,0,0]}],[{"header":{"parameterUnit":"m.s-1","parameterCategory":2,"la1":30.2991,"la2":30.254,"lo1":-89.0895,"lo2":-89.0444,"dy":0.0017,"dx":0.0017,"nx":28,"ny":28,"refTime":"2024-07-13T03:00:00:Z","depth":"4","parameterNumber":2,"parameterNumberName":"U-component_of_CURRENTS"},"data":[0,0,0,0,0,0,0,0,0,0,0,0,0,0,0,0,0,0,0,0,0,0,0,0,0,0,0,0,0,0,0,0,0,0,0,0,0,0,0,0,0,0,0,0,0,0,0,0,0,0,0,0,0,0,0,0,0,0,-0.0192,-0.0192,0,-0.0207,-0.0208,-0.0208,-0.0201,-0.0201,-0.02,-0.02,-0.0245,-0.0246,-0.0248,0,0,0,0,0,0,0,0,0,0,0,0,0,-0.0218,-0.0218,-0.0192,-0.0192,-0.0192,-0.0207,-0.0208,-0.0208,-0.0201,-0.0201,-0.02,-0.0199,-0.0244,-0.0246,-0.0248,0,0,0,0,0,0,0,0,0,0,0,0,0,-0.0219,-0.0217,-0.0192,-0.0189,-0.0189,-0.0207,-0.0208,-0.0208,-0.0202,-0.0201,-0.02,-0.0199,-0.0243,-0.0246,-0.0248,-0.0281,0,0,-0.0256,-0.0257,0,0,0,0,0,0,0,0,-0.0219,-0.0218,-0.019,-0.019,-0.0189,-0.02,-0.0233,-0.0233,-0.0202,-0.0199,-0.02,-0.0199,-0.0232,-0.0235,-0.0242,-0.0283,-0.0285,-0.0256,-0.0258,-0.0259,-0.026,0,0,0,0,0,0,0,-0.0219,-0.0218,-0.02,-0.019,-0.019,-0.0208,-0.0207,-0.0233,-0.0222,-0.0199,-0.0198,-0.0197,-0.0232,-0.024,-0.0243,-0.0285,-0.0256,-0.0259,-0.026,-0.0261,-0.0328,-0.0328,0,0,0,0,0,0,-0.0211,-0.0218,-0.02,-0.0201,-0.02,-0.0208,-0.0206,-0.0199,-0.0221,-0.0223,-0.0198,-0.0197,-0.0236,-0.024,-0.0245,-0.025,-0.0259,-0.0262,-0.0263,-0.0328,-0.0328,-0.0328,0,0,0,0,0,0,-0.0211,-0.0209,-0.0199,-0.0208,-0.0208,-0.0207,-0.0199,-0.02,-0.0195,-0.0219,-0.0222,-0.0191,-0.0235,-0.0241,-0.026,-0.0253,-0.0263,-0.0265,-0.0328,-0.0328,-0.0328,-0.0283,0,0,0,0,0,0,-0.0212,-0.0209,-0.0205,-0.0207,-0.0207,-0.0201,-0.02,-0.02,-0.0195,-0.0194,-0.0215,-0.0218,-0.0235,-0.0256,-0.0263,-0.0257,-0.0267,-0.0327,-0.0328,-0.0328,-0.0284,-0.0282,-0.028,0,0,0,0,0,-0.0213,-0.0209,-0.0205,-0.0203,-0.0201,-0.0201,-0.0203,-0.0201,-0.0195,-0.0194,-0.0208,-0.0217,-0.0263,-0.0259,-0.0266,-0.0261,-0.0327,-0.0328,-0.0328,-0.0285,-0.0282,-0.028,0,0,0,0,0,0,-0.0225,-0.0208,-0.0204,-0.0196,-0.0194,-0.0198,-0.02,-0.0196,-0.0206,-0.0203,-0.0224,-0.0229,-0.0243,-0.0263,-0.0257,-0.0283,-0.0296,-0.0298,-0.0261,-0.0258,-0.0256,-0.024,-0.0269,0,0,0,0,0,-0.0224,-0.0213,-0.0205,-0.0201,-0.0196,-0.0196,-0.0197,-0.0192,-0.0199,-0.0202,-0.0212,-0.0232,-0.0255,-0.0263,-0.0287,-0.0303,-0.0311,-0.0305,-0.0303,-0.0301,-0.0294,-0.0314,-0.0313,-0.033,-0.033,-0.033,0,0,-0.023,-0.0219,-0.0214,-0.0202,-0.0201,-0.0194,-0.0195,-0.0189,-0.0186,-0.0208,-0.0208,-0.0226,-0.0259,-0.0274,-0.0282,-0.0286,-0.0296,-0.0301,-0.0299,-0.0293,-0.0315,-0.0313,-0.0311,-0.0331,-0.0331,-0.033,0,0,-0.023,-0.0222,-0.0209,-0.0203,-0.0192,-0.0192,-0.0186,-0.0179,-0.0178,-0.0183,-0.0199,-0.0211,-0.0239,-0.026,-0.0276,-0.028,-0.0285,-0.0283,-0.0256,-0.0276,-0.0274,-0.0273,-0.0257,-0.0254,-0.0279,-0.0279,-0.0279,0,-0.0237,-0.0215,-0.0209,-0.0195,-0.0188,-0.0187,-0.0173,-0.0179,-0.0179,-0.0181,-0.0176,-0.0212,-0.0235,-0.0261,-0.0253,-0.0273,-0.027,-0.026,-0.0271,-0.027,-0.0269,-0.0254,-0.0252,-0.0277,-0.0277,-0.0278,-0.0278,0,-0.0222,-0.0207,-0.02,-0.0178,-0.0175,-0.0164,-0.0162,-0.0159,-0.0154,-0.0157,-0.0169,-0.0195,-0.021,-0.0222,-0.0234,-0.0243,-0.0236,-0.0266,-0.0272,-0.0264,-0.0249,-0.0247,-0.0274,-0.0275,-0.0276,-0.0276,0,0,-0.023,-0.0194,-0.0191,-0.0175,-0.016,-0.0154,-0.0153,-0.015,-0.0146,-0.0148,-0.0146,-0.0175,-0.0172,-0.019,-0.0209,-0.0222,-0.0205,-0.0228,-0.023,-0.0201,-0.0214,-0.0199,-0.0197,-0.0232,-0.0232,-0.0232,-0.0195,0,-0.0218,-0.0182,-0.0171,-0.0148,-0.0129,-0.0129,-0.0127,-0.0128,-0.0131,-0.0131,-0.0155,-0.0158,-0.0167,-0.016,-0.0176,-0.0208,-0.0203,-0.021,-0.0235,-0.0235,-0.0216,-0.0196,-0.0232,-0.0195,-0.0194,-0.0194,-0.0194,0,-0.0202,-0.0177,-0.0142,-0.0119,-0.0112,-0.0098,-0.0091,-0.0088,-0.0101,-0.01,-0.0105,-0.0118,-0.0128,-0.0139,-0.0167,-0.0166,-0.0172,-0.0195,-0.0195,-0.0198,-0.022,-0.0212,-0.0192,-0.0192,-0.0192,-0.0192,-0.0192,0,-0.0198,-0.0161,-0.0129,-0.0119,-0.0093,-0.0078,-0.0066,-0.007,-0.007,-0.0067,-0.0064,-0.0083,-0.0084,-0.0109,-0.0138,-0.0143,-0.0174,-0.0195,-0.0184,-0.0182,-0.0226,-0.0228,-0.0203,-0.0203,-0.0203,-0.0204,-0.0204,0,-0.0184,-0.0164,-0.0116,-0.0098,-0.0065,-0.0052,-0.003,-0.0025,-0.0024,-0.003,-0.0033,-0.0058,-0.0076,-0.0102,-0.0126,-0.0145,-0.016,-0.0165,-0.0175,-0.0205,-0.0205,-0.0223,-0.0226,-0.0202,-0.0202,-0.0203,-0.0203,0,-0.0188,-0.0155,-0.012,-0.0075,-0.0057,-0.0031,0.0002,0.0005,0.0017,0.0009,0.0018,-0.0021,-0.0052,-0.0073,-0.0117,-0.0122,-0.0152,-0.0155,-0.0155,-0.0168,-0.014,-0.0141,-0.012,-0.012,-0.0119,-0.0119,-0.0118,0,-0.0185,-0.0163,-0.0103,-0.0074,-0.0046,-0.0005,0.0012,0.003,0.0028,0.0006,-0.001,-0.0025,-0.0053,-0.0088,-0.0127,-0.0134,-0.0147,-0.0124,-0.0147,-0.0121,-0.0133,-0.0135,-0.0137,-0.0117,-0.0117,-0.0117,-0.0117,0,-0.0191,-0.0167,-0.0137,-0.0071,-0.0032,-0.0005,0.0025,0.003,0.0032,0.0033,-0.0009,-0.0024,-0.0061,-0.0098,-0.0083,-0.0114,-0.0121,-0.0118,-0.0119,-0.014,-0.0117,-0.013,-0.0133,-0.0115,-0.0115,-0.0115,-0.0115,0,-0.0203,-0.0182,-0.0134,-0.0077,-0.0029,-0.0,0.0012,0.0017,0.0023,0.0015,-0.002,-0.0056,-0.0077,-0.0091,-0.0116,-0.0099,-0.0101,-0.0082,-0.0086,-0.0088,-0.0099,-0.0066,-0.0045,0,0,0,0,0,-0.0212,-0.0185,-0.0142,-0.0077,-0.0031,-0.0002,0.0016,0.0017,0.0019,0.0006,0.001,-0.0027,-0.0045,-0.0093,-0.0071,-0.0116,-0.0106,-0.009,-0.0088,-0.0103,-0.0105,-0.0124,0,0,0,0,0,0,-0.0213,-0.0182,-0.015,-0.0085,-0.004,-0.0002,0.0014,0.0007,0.0002,0.0001,-0.002,-0.0009,-0.0046,-0.005,-0.007,-0.0073,-0.0064,-0.0103,-0.0102,-0.0101,-0.0103,-0.0105,-0.0125,0,0,0,0,0]},{"header":{"parameterUnit":"m.s-1","parameterCategory":2,"la1":30.2991,"la2":30.254,"lo1":-89.0895,"lo2":-89.0444,"dy":0.0017,"dx":0.0017,"nx":28,"ny":28,"refTime":"2024-07-13T03:00:00:Z","depth":"4","parameterNumber":3,"parameterNumberName":"V-component_of_CURRENTS"},"data":[0,0,0,0,0,0,0,0,0,0,0,0,0,0,0,0,0,0,0,0,0,0,0,0,0,0,0,0,0,0,0,0,0,0,0,0,0,0,0,0,0,0,0,0,0,0,0,0,0,0,0,0,0,0,0,0,0,0,0.0013,0.0013,0,-0.0007,-0.0007,-0.0007,-0.0077,-0.0079,-0.008,-0.0082,-0.0138,-0.0137,-0.0137,0,0,0,0,0,0,0,0,0,0,0,0,0,0.004,0.004,0.0013,0.0013,0.0013,-0.0007,-0.0007,-0.0007,-0.0077,-0.0079,-0.0081,-0.0083,-0.0138,-0.0138,-0.0137,0,0,0,0,0,0,0,0,0,0,0,0,0,0.0027,0.004,0.0014,-0.0026,-0.003,-0.0007,-0.0007,-0.0007,-0.0076,-0.0079,-0.0081,-0.0084,-0.0138,-0.0138,-0.0137,-0.0082,0,0,-0.0136,-0.0136,0,0,0,0,0,0,0,0,0.0028,0.0027,-0.002,-0.0023,-0.0028,-0.0044,-0.0018,-0.0035,-0.0075,-0.0056,-0.0082,-0.0085,-0.0109,-0.0112,-0.0105,-0.0085,-0.0087,-0.0136,-0.0136,-0.0136,-0.0136,0,0,0,0,0,0,0,0.0029,0.0028,0.0008,-0.002,-0.0025,-0.0027,-0.0032,-0.0021,-0.0066,-0.0058,-0.0064,-0.0069,-0.0112,-0.0105,-0.0107,-0.0088,-0.0136,-0.0136,-0.0136,-0.0136,-0.0138,-0.0138,0,0,0,0,0,0,0.0027,0.0029,0.0008,0.0007,-0.0009,-0.0026,-0.0031,-0.0034,-0.0066,-0.0073,-0.0067,-0.0072,-0.0105,-0.0108,-0.011,-0.0152,-0.0136,-0.0136,-0.0136,-0.0138,-0.0138,-0.0138,0,0,0,0,0,0,0.0028,0.0026,0.0009,0.0015,0.0012,-0.0024,-0.0027,-0.0033,-0.0065,-0.0072,-0.0081,-0.0096,-0.0107,-0.011,-0.0126,-0.0151,-0.0136,-0.0135,-0.0138,-0.0138,-0.0138,-0.0168,0,0,0,0,0,0,0.0029,0.0027,0.0018,0.0015,0.0012,0.0002,-0.0024,-0.0032,-0.0063,-0.0071,-0.0099,-0.0105,-0.0109,-0.0126,-0.0126,-0.015,-0.0135,-0.0137,-0.0138,-0.0138,-0.0167,-0.0169,-0.0172,0,0,0,0,0,0.003,0.0032,0.0018,0.0015,0.0003,0.0001,-0.0,-0.0033,-0.0062,-0.0072,-0.0093,-0.0106,-0.0129,-0.0125,-0.0125,-0.015,-0.0137,-0.0138,-0.0138,-0.0166,-0.0169,-0.0172,0,0,0,0,0,0,0.004,0.0025,0.001,0.0005,-0.0007,-0.0012,-0.0024,-0.0044,-0.0065,-0.0086,-0.0098,-0.0103,-0.013,-0.0126,-0.0122,-0.0151,-0.0139,-0.014,-0.0161,-0.0163,-0.0166,-0.0174,-0.0135,0,0,0,0,0,0.004,0.0033,0.002,0.0015,0.0007,-0.0012,-0.0022,-0.0045,-0.006,-0.0075,-0.0097,-0.0115,-0.0121,-0.0134,-0.0137,-0.0142,-0.0132,-0.0161,-0.0163,-0.0165,-0.0171,-0.0167,-0.0169,-0.014,-0.014,-0.014,0,0,0.0043,0.0033,0.0028,0.0015,0.0002,-0.0011,-0.0026,-0.0048,-0.0068,-0.0074,-0.0114,-0.0123,-0.0123,-0.0139,-0.0151,-0.0146,-0.0166,-0.0166,-0.0168,-0.0172,-0.0167,-0.017,-0.0173,-0.014,-0.014,-0.014,0,0,0.0044,0.0033,0.0022,0.001,-0.0017,-0.0022,-0.0037,-0.0062,-0.0086,-0.0107,-0.0123,-0.0145,-0.0158,-0.0165,-0.0166,-0.0177,-0.0178,-0.0189,-0.0211,-0.0207,-0.021,-0.0212,-0.0195,-0.0196,-0.0192,-0.0193,-0.0193,0,0.0041,0.0026,0.0019,0.0001,-0.0016,-0.0034,-0.0056,-0.0065,-0.0097,-0.0114,-0.0132,-0.0162,-0.0168,-0.018,-0.0193,-0.0185,-0.018,-0.0202,-0.0211,-0.0213,-0.0215,-0.0197,-0.0197,-0.0194,-0.0194,-0.0194,-0.0194,0,0.0031,0.001,0.0003,-0.0027,-0.004,-0.0059,-0.0077,-0.0101,-0.0133,-0.0148,-0.0183,-0.0186,-0.0208,-0.0214,-0.021,-0.0229,-0.0219,-0.0214,-0.0206,-0.022,-0.02,-0.02,-0.0196,-0.0196,-0.0195,-0.0195,0,0,0.0038,0.0002,-0.0006,-0.003,-0.0063,-0.0073,-0.01,-0.0125,-0.0151,-0.0183,-0.0214,-0.0229,-0.0245,-0.0247,-0.0248,-0.025,-0.0256,-0.0246,-0.0245,-0.0232,-0.0243,-0.0262,-0.0262,-0.0257,-0.0258,-0.0258,-0.0222,0,0.0023,-0.0012,-0.0028,-0.0067,-0.0089,-0.0112,-0.0132,-0.0159,-0.0183,-0.0212,-0.0224,-0.0247,-0.0251,-0.0266,-0.0272,-0.0262,-0.0258,-0.0266,-0.0229,-0.0228,-0.0245,-0.0264,-0.0259,-0.0221,-0.0221,-0.0221,-0.0221,0,0.0005,-0.0015,-0.0053,-0.0097,-0.0109,-0.013,-0.0171,-0.0191,-0.022,-0.024,-0.0268,-0.0278,-0.0292,-0.0289,-0.0282,-0.0291,-0.0274,-0.026,-0.0258,-0.0267,-0.0246,-0.0206,-0.022,-0.022,-0.022,-0.022,-0.022,0,0.0005,-0.0039,-0.007,-0.0086,-0.0127,-0.0151,-0.0173,-0.0206,-0.022,-0.0255,-0.0269,-0.0293,-0.0299,-0.0294,-0.0275,-0.0284,-0.0254,-0.0257,-0.025,-0.025,-0.0229,-0.0227,-0.0244,-0.0244,-0.0244,-0.0244,-0.0245,0,-0.0012,-0.0041,-0.0073,-0.0091,-0.0125,-0.0157,-0.019,-0.0214,-0.024,-0.0254,-0.0281,-0.0291,-0.0303,-0.029,-0.0277,-0.0263,-0.0252,-0.026,-0.0249,-0.024,-0.024,-0.0228,-0.0227,-0.0243,-0.0243,-0.0244,-0.0244,0,-0.0021,-0.0042,-0.0075,-0.0115,-0.0128,-0.0153,-0.0188,-0.0207,-0.0231,-0.0248,-0.0257,-0.0284,-0.0287,-0.0278,-0.026,-0.0259,-0.0241,-0.0229,-0.0208,-0.0195,-0.0239,-0.0239,-0.0241,-0.0242,-0.0242,-0.0243,-0.0243,0,-0.0034,-0.0049,-0.0082,-0.0095,-0.0117,-0.0149,-0.0168,-0.0199,-0.0212,-0.0238,-0.0242,-0.0259,-0.0275,-0.0259,-0.0258,-0.0238,-0.0233,-0.0218,-0.0254,-0.0254,-0.0242,-0.0242,-0.0242,-0.0244,-0.0244,-0.0244,-0.0244,0,-0.005,-0.0057,-0.0078,-0.0094,-0.0116,-0.0142,-0.0169,-0.0175,-0.0206,-0.0215,-0.0238,-0.0256,-0.0261,-0.0273,-0.0252,-0.0235,-0.0236,-0.0223,-0.0222,-0.0257,-0.0256,-0.0245,-0.0244,-0.0246,-0.0245,-0.0245,-0.0245,0,-0.0058,-0.0068,-0.0081,-0.0099,-0.0115,-0.0138,-0.0157,-0.0179,-0.0195,-0.0222,-0.0224,-0.0244,-0.0257,-0.0269,-0.0245,-0.0244,-0.0259,-0.0258,-0.0256,-0.0255,-0.0281,-0.0283,-0.0278,0,0,0,0,0,-0.0064,-0.0072,-0.0085,-0.0111,-0.0121,-0.013,-0.0157,-0.0172,-0.0189,-0.0205,-0.0219,-0.0228,-0.0248,-0.0256,-0.0261,-0.0258,-0.0253,-0.0264,-0.0249,-0.0254,-0.0252,-0.0284,0,0,0,0,0,0,-0.0071,-0.008,-0.0085,-0.0107,-0.0118,-0.014,-0.0154,-0.0172,-0.0185,-0.02,-0.0209,-0.0223,-0.0237,-0.0237,-0.0256,-0.0258,-0.025,-0.0272,-0.0272,-0.0255,-0.0254,-0.0252,-0.0284,0,0,0,0,0]}]]